Regional Weather Roundup
Issued by NWS

Home | Current Version | Previous Version | Graphics & Text | Print | Product List | Glossary On
Versions: 1 2 3 4 5 6 7 8 9 10 11 12 13 14 15 16 17 18 19 20 21 22 23 24 25 26 27 28 29 30 31 32 33 34 35 36 37 38 39 40 41 42 43 44 45 46 47 48 49 50
000
ASUS45 KBOI 211510
RWRID
WEATHER ROUNDUP FOR IDAHO
NATIONAL WEATHER SERVICE BOISE ID
800 AM MST FRI NOV 21 2014

NOTE: "FAIR" INDICATES FEW OR NO CLOUDS BELOW 12000 FEET
WITH NO SIGNIFICANT WEATHER AND/OR OBSTRUCTIONS TO VISIBILITY

IDZ012-014-211600-
SOUTHWEST IDAHO


CITY           SKY/WX    TMP DP  RH WIND       PRES   REMARKS
BOISE          CLOUDY    24  20  84 CALM      30.07S FOG
CALDWELL         N/A    N/A N/A N/A MISG        N/A
MOUNTAIN HOME  FOG       21  21 100 NE5       30.07S VSB 1   WCI  14
$$

IDZ016-017-211600-
SOUTHCENTRAL IDAHO


CITY           SKY/WX    TMP DP  RH WIND       PRES   REMARKS
BURLEY         CLEAR     22  19  89 CALM      30.01S FOG
JEROME         PTCLDY    27  23  85 NE8       30.02R WCI  19
TWIN FALLS     CLEAR     24  20  84 CALM      30.01R FOG
$$

IDZ019>023-211600-
SOUTHEAST IDAHO


CITY           SKY/WX    TMP DP  RH WIND       PRES   REMARKS
IDAHO FALLS    MOCLDY    20  18  92 NE3       30.04S
POCATELLO      PTCLDY    17  16  95 CALM      30.05R
REXBURG        FOG       21  20  96 CALM      30.03F VSB<1/4
$$

IDZ006-010-011-018-031-032-211600-
CENTRAL IDAHO MOUNTAINS


CITY           SKY/WX    TMP DP  RH WIND       PRES   REMARKS
MCCALL         CLOUDY    28  27  96 CALM      29.97S FOG
HAILEY         MOCLDY    27  23  86 NW8       30.02S WCI  18
STANLEY          N/A     20  16  84 CALM      30.00S
SALMON         PTCLDY    16  16 100 SE3       30.03S
CHALLIS        CLOUDY    18  16  92 CALM      30.02S
$$

IDZ002-004-006-007-026-211600-
NORTHERN IDAHO


CITY           SKY/WX    TMP DP  RH WIND       PRES   REMARKS
LEWISTON       CLOUDY    38  33  82 E7        29.96F WCI  33
LOWELL           N/A     32  30  92 CALM      30.04S
COEUR D`ALENE  CLOUDY    34  30  86 CALM      29.90F VSB 1/4
MULLAN PASS    MIX PCPN  31  29  92 SW8G16    29.85S VSB 1/4 WCI  23
$$


USA.gov is the U.S. government's official web portal to all federal, state and local government web resources and services.